TOMORROW-S1

Last updated on Mon Sep 16 2024 00:02:03 GMT+0000 (Coordinated Universal Time)

1 60479U 24149M 24259.17198871 .00015698 00000+0 77241-3 0 9992 2 60479 97.4378 334.2439 0003170 25.4075 334.7314 15.18082404 4459
UTC large
Height (km)
Speed (km/s)
/
Latitude / Longitude
Inclination (degrees)
Orbital Period (minutes)
Azimuth
Elevation
Range (km)
Doppler Factor

Next 0 passes for location: London (51.5072 / 0.1276)

Sorry there are no passes over London.